Flag for U.S.A. Weather past 2 weeks in Lakewood, Colorado, U.S.A.

Now
60 °F

Passing clouds.


Feels Like: 60 °F
Forecast: 54 / 75 °F
Wind: 18 mph from South

Location: Centennial Airport

Current Time: Sep 22, 2014 at 3:08:43 AM

Latest Report: Sep 22, 2014 at 1:53 AM


Visibility: 10 mi

Pressure: 30.11 "Hg

Humidity: 58%

Dew point: 45 °F

Location of LakewoodLocation

Historic Weather in Lakewood — Graph

°F

Lakewood temperature yesterday

Maximum temperature yesterday: 74 °F (at 1:53 PM)
Minimum temperature yesterday: 54 °F (at 6:53 AM)
Average temperature yesterday: 62 °F

Past Weeks' High & Low Weather Summary

 TemperatureHumidityPressure
High87 °F (Sep 17, 2:53 PM)100% (Sep 10, 5:53 AM)30.53 "Hg (Sep 10, 5:53 AM)
Low32 °F (Sep 12, 3:53 AM)13% (Sep 18, 3:53 PM)29.65 "Hg (Sep 9, 12:53 PM)
Average63 °F55%30.02 "Hg
* Reported Sep 7 1:53 AM — Sep 22 1:53 AM, Lakewood, Weather by CustomWeather, © 2014

Note: Actual official high and low records may vary slightly from our data, if they occured in-between our weather recording intervals... More about our weather records

Advertising

Lakewood weather history for previous 24 hours

 ConditionsComfort  
Time TempWeatherWind HumidityBarometerVisibility
1:53 AM
Sep 22
60 °FPassing clouds.18 mph58%30.11 "Hg10 mi
12:53 AM59 °FPassing clouds.18 mph60%30.15 "Hg10 mi
11:53 PM
Sep 21
59 °FPartly cloudy.17 mph78%30.17 "Hg10 mi
10:53 PM58 °FLight rain. Fog.10 mph97%30.22 "Hg6 mi
9:53 PM57 °FLight rain. Fog.8 mph96%30.24 "Hg4 mi
8:53 PM60 °FThunderstorms. Fog.10 mph90%30.25 "Hg5 mi
7:53 PM63 °FLight rain. Mostly cloudy.No wind73%30.21 "Hg10 mi
6:53 PM64 °FBroken clouds.5 mph63%30.18 "Hg10 mi
5:53 PM67 °FBroken clouds.8 mph55%30.15 "Hg10 mi
4:53 PM67 °FBroken clouds.10 mph55%30.14 "Hg10 mi
3:53 PM71 °FPartly sunny.9 mph49%30.12 "Hg10 mi
2:53 PM71 °FPartly sunny.18 mph51%30.12 "Hg10 mi
1:53 PM74 °FBroken clouds.18 mph46%30.12 "Hg10 mi
12:53 PM68 °FPartly sunny.18 mph57%30.19 "Hg10 mi
11:53 AM64 °FScattered clouds.3 mph56%30.24 "Hg10 mi
10:53 AM62 °FBroken clouds.No wind56%30.27 "Hg10 mi
9:53 AM60 °FPartly sunny.No wind60%30.28 "Hg10 mi
8:53 AM56 °FScattered clouds.3 mph67%30.28 "Hg10 mi
7:53 AM56 °FPartly sunny.6 mph70%30.26 "Hg10 mi
6:53 AM54 °FPartly cloudy.6 mph77%30.24 "Hg10 mi
5:53 AM56 °FPartly cloudy.8 mph72%30.21 "Hg10 mi
4:53 AM59 °FPassing clouds.8 mph81%30.18 "Hg10 mi
3:53 AM60 °FPassing clouds.10 mph83%30.17 "Hg10 mi
Weather by CustomWeather, © 2014

See weather overviewHow to use our weather pages